Time,TemperatureF,DewpointF,PressureIn,WindDirection,WindDirectionDegrees,WindSpeedMPH,WindSpeedGustMPH,Humidity,HourlyPrecipIn,Conditions,Clouds,dailyrainin,SolarRadiationWatts/m^2,SoftwareType,DateUTC
2013-03-18 00:00:00,40.9,36.1,30.20,NW,319,5.0,14.0,83,0.00,,,0.00,0,Wunderground v.1.15,2013-03-18 07:00:00,
2013-03-18 00:05:00,40.9,36.1,30.20,West,267,6.0,10.0,83,0.00,,,0.00,0,Wunderground v.1.15,2013-03-18 07:05:00,
2013-03-18 00:10:00,40.9,36.4,30.20,SW,230,10.0,12.0,84,0.00,,,0.00,0,Wunderground v.1.15,2013-03-18 07:10:00,
2013-03-18 00:15:00,40.9,36.1,30.20,WSW,251,6.0,13.0,83,0.00,,,0.00,0,Wunderground v.1.15,2013-03-18 07:15:00,
2013-03-18 00:20:00,41.0,36.2,30.20,West,267,9.0,13.0,83,0.00,,,0.00,0,Wunderground v.1.15,2013-03-18 07:20:00,
2013-03-18 00:25:00,41.0,36.2,30.20,West,270,5.0,12.0,83,0.00,,,0.00,0,Wunderground v.1.15,2013-03-18 07:25:00,
2013-03-18 00:30:00,40.9,36.1,30.21,West,269,7.0,12.0,83,0.00,,,0.00,0,Wunderground v.1.15,2013-03-18 07:30:00,
2013-03-18 00:35:00,41.0,36.2,30.20,WNW,283,7.0,11.0,83,0.00,,,0.00,0,Wunderground v.1.15,2013-03-18 07:35:00,
2013-03-18 00:40:00,41.1,36.3,30.20,West,259,5.0,12.0,83,0.00,,,0.00,0,Wunderground v.1.15,2013-03-18 07:40:00,
2013-03-18 00:45:00,41.1,36.0,30.20,West,269,6.0,13.0,82,0.00,,,0.00,0,Wunderground v.1.15,2013-03-18 07:45:00,
2013-03-18 00:50:00,41.0,35.9,30.20,West,259,6.0,13.0,82,0.00,,,0.00,0,Wunderground v.1.15,2013-03-18 07:50:00,
2013-03-18 00:55:00,41.0,35.9,30.20,West,273,5.0,13.0,82,0.00,,,0.00,0,Wunderground v.1.15,2013-03-18 07:55:00,
2013-03-18 01:00:00,41.0,36.2,30.20,West,270,6.0,13.0,83,0.00,,,0.00,0,Wunderground v.1.15,2013-03-18 08:00:00,
2013-03-18 01:05:00,41.1,36.3,30.19,West,261,5.0,11.0,83,0.00,,,0.00,0,Wunderground v.1.15,2013-03-18 08:05:00,
2013-03-18 01:10:00,41.2,36.4,30.19,WSW,246,7.0,11.0,83,0.00,,,0.00,0,Wunderground v.1.15,2013-03-18 08:10:00,
2013-03-18 01:15:00,41.3,36.5,30.19,West,269,8.0,17.0,83,0.00,,,0.00,0,Wunderground v.1.15,2013-03-18 08:15:00,
2013-03-18 01:20:00,41.3,36.5,30.19,West,273,12.0,17.0,83,0.00,,,0.00,0,Wunderground v.1.15,2013-03-18 08:20:00,
2013-03-18 01:25:00,41.2,36.1,30.19,West,265,8.0,17.0,82,0.00,,,0.00,0,Wunderground v.1.15,2013-03-18 08:25:00,
2013-03-18 01:30:00,41.2,36.4,30.19,West,267,9.0,17.0,83,0.00,,,0.00,0,Wunderground v.1.15,2013-03-18 08:30:00,
2013-03-18 01:35:00,41.2,36.4,30.19,WSW,242,6.0,12.0,83,0.00,,,0.00,0,Wunderground v.1.15,2013-03-18 08:35:00,
2013-03-18 01:40:00,41.3,36.5,30.19,SW,229,9.0,14.0,83,0.00,,,0.00,0,Wunderground v.1.15,2013-03-18 08:40:00,
2013-03-18 01:45:00,41.3,36.2,30.19,West,265,14.0,16.0,82,0.00,,,0.00,0,Wunderground v.1.15,2013-03-18 08:45:00,
2013-03-18 01:50:00,41.3,36.5,30.19,WNW,283,9.0,16.0,83,0.00,,,0.00,0,Wunderground v.1.15,2013-03-18 08:50:00,
2013-03-18 01:55:00,41.3,36.5,30.18,WSW,250,17.0,18.0,83,0.00,,,0.00,0,Wunderground v.1.15,2013-03-18 08:55:00,
2013-03-18 02:00:00,41.3,36.2,30.18,West,269,14.0,20.0,82,0.00,,,0.00,0,Wunderground v.1.15,2013-03-18 09:00:00,
2013-03-18 02:05:00,41.2,36.1,30.18,West,279,11.0,15.0,82,0.00,,,0.00,0,Wunderground v.1.15,2013-03-18 09:05:00,
2013-03-18 02:10:00,41.0,35.9,30.18,WSW,243,11.0,17.0,82,0.00,,,0.00,0,Wunderground v.1.15,2013-03-18 09:10:00,
2013-03-18 02:15:00,41.1,36.3,30.18,WSW,246,4.0,23.0,83,0.00,,,0.00,0,Wunderground v.1.15,2013-03-18 09:15:00,
2013-03-18 02:20:00,41.1,36.3,30.18,West,263,13.0,23.0,83,0.00,,,0.00,0,Wunderground v.1.15,2013-03-18 09:20:00,
2013-03-18 02:25:00,41.1,36.3,30.18,WSW,250,9.0,16.0,83,0.00,,,0.00,0,Wunderground v.1.15,2013-03-18 09:25:00,
2013-03-18 02:30:00,41.1,36.3,30.18,West,267,9.0,16.0,83,0.00,,,0.00,0,Wunderground v.1.15,2013-03-18 09:30:00,
2013-03-18 02:35:00,41.2,36.4,30.17,WSW,255,6.0,18.0,83,0.00,,,0.00,0,Wunderground v.1.15,2013-03-18 09:35:00,
2013-03-18 02:40:00,41.3,36.5,30.17,WSW,258,13.0,19.0,83,0.00,,,0.00,0,Wunderground v.1.15,2013-03-18 09:40:00,
2013-03-18 02:45:00,41.4,36.6,30.17,West,267,18.0,22.0,83,0.00,,,0.00,0,Wunderground v.1.15,2013-03-18 09:45:00,
2013-03-18 02:50:00,41.5,36.7,30.17,SW,223,14.0,26.0,83,0.00,,,0.00,0,Wunderground v.1.15,2013-03-18 09:50:00,
2013-03-18 02:55:00,41.4,36.6,30.17,West,263,14.0,21.0,83,0.00,,,0.00,0,Wunderground v.1.15,2013-03-18 09:55:00,
2013-03-18 03:00:00,41.5,36.7,30.16,West,260,13.0,22.0,83,0.00,,,0.00,0,Wunderground v.1.15,2013-03-18 10:00:00,
2013-03-18 03:05:00,41.5,36.7,30.16,SW,226,19.0,22.0,83,0.00,,,0.00,0,Wunderground v.1.15,2013-03-18 10:05:00,
2013-03-18 03:10:00,41.5,36.4,30.16,West,270,17.0,22.0,82,0.00,,,0.00,0,Wunderground v.1.15,2013-03-18 10:10:00,
2013-03-18 03:15:00,41.5,36.4,30.17,WSW,238,7.0,20.0,82,0.00,,,0.00,0,Wunderground v.1.15,2013-03-18 10:15:00,
2013-03-18 03:20:00,41.5,36.4,30.16,West,264,12.0,21.0,82,0.00,,,0.00,0,Wunderground v.1.15,2013-03-18 10:20:00,
2013-03-18 03:25:00,41.6,36.5,30.17,West,269,13.0,19.0,82,0.00,,,0.00,0,Wunderground v.1.15,2013-03-18 10:25:00,
2013-03-18 03:30:00,41.6,36.5,30.16,West,278,14.0,22.0,82,0.00,,,0.00,0,Wunderground v.1.15,2013-03-18 10:30:00,
2013-03-18 03:35:00,41.6,36.5,30.16,West,271,19.0,23.0,82,0.00,,,0.00,0,Wunderground v.1.15,2013-03-18 10:35:00,
2013-03-18 03:40:00,41.6,36.5,30.16,West,262,10.0,23.0,82,0.00,,,0.00,0,Wunderground v.1.15,2013-03-18 10:40:00,
2013-03-18 03:45:00,41.7,36.6,30.15,WNW,284,10.0,26.0,82,0.00,,,0.00,0,Wunderground v.1.15,2013-03-18 10:45:00,
2013-03-18 03:50:00,41.7,36.6,30.16,SSW,209,8.0,26.0,82,0.00,,,0.00,0,Wunderground v.1.15,2013-03-18 10:50:00,
2013-03-18 03:55:00,41.8,37.0,30.15,West,275,21.0,21.0,83,0.00,,,0.00,0,Wunderground v.1.15,2013-03-18 10:55:00,
2013-03-18 04:00:00,41.7,36.3,30.14,WSW,242,17.0,29.0,81,0.00,,,0.00,0,Wunderground v.1.15,2013-03-18 11:00:00,
2013-03-18 04:05:00,41.7,36.6,30.15,WSW,241,11.0,25.0,82,0.00,,,0.00,0,Wunderground v.1.15,2013-03-18 11:05:00,
2013-03-18 04:10:00,41.8,36.7,30.15,WSW,245,18.0,25.0,82,0.00,,,0.00,0,Wunderground v.1.15,2013-03-18 11:10:00,
2013-03-18 04:15:00,41.7,36.3,30.15,West,267,12.0,22.0,81,0.00,,,0.00,0,Wunderground v.1.15,2013-03-18 11:15:00,
2013-03-18 04:20:00,41.7,36.3,30.15,West,277,18.0,25.0,81,0.00,,,0.00,0,Wunderground v.1.15,2013-03-18 11:20:00,
2013-03-18 04:25:00,41.7,36.6,30.15,West,281,20.0,23.0,82,0.00,,,0.00,0,Wunderground v.1.15,2013-03-18 11:25:00,
2013-03-18 04:30:00,41.8,36.7,30.14,West,279,13.0,23.0,82,0.00,,,0.00,0,Wunderground v.1.15,2013-03-18 11:30:00,
2013-03-18 04:35:00,41.8,36.7,30.14,West,265,9.0,17.0,82,0.00,,,0.00,0,Wunderground v.1.15,2013-03-18 11:35:00,
2013-03-18 04:40:00,41.8,36.7,30.14,SSW,206,7.0,17.0,82,0.00,,,0.00,0,Wunderground v.1.15,2013-03-18 11:40:00,
2013-03-18 04:45:00,41.9,37.1,30.14,WSW,250,16.0,20.0,83,0.00,,,0.00,0,Wunderground v.1.15,2013-03-18 11:45:00,
2013-03-18 04:50:00,41.8,37.0,30.14,West,276,11.0,24.0,83,0.00,,,0.00,0,Wunderground v.1.15,2013-03-18 11:50:00,
2013-03-18 04:55:00,41.8,37.0,30.14,West,278,13.0,24.0,83,0.00,,,0.00,0,Wunderground v.1.15,2013-03-18 11:55:00,
2013-03-18 04:59:00,41.8,36.7,30.14,WNW,284,16.0,26.0,82,0.00,,,0.00,0,Wunderground v.1.15,2013-03-18 11:59:00,
2013-03-18 05:05:00,41.8,36.7,30.14,West,262,8.0,22.0,82,0.00,,,0.00,0,Wunderground v.1.15,2013-03-18 12:05:00,
2013-03-18 05:10:00,41.8,36.7,30.13,SW,232,13.0,22.0,82,0.00,,,0.00,0,Wunderground v.1.15,2013-03-18 12:10:00,
2013-03-18 05:15:00,41.8,36.7,30.14,West,275,10.0,22.0,82,0.00,,,0.00,0,Wunderground v.1.15,2013-03-18 12:15:00,
2013-03-18 05:20:00,41.7,36.6,30.14,West,265,8.0,22.0,82,0.00,,,0.00,0,Wunderground v.1.15,2013-03-18 12:20:00,
2013-03-18 05:25:00,41.7,36.9,30.14,West,281,8.0,20.0,83,0.00,,,0.00,0,Wunderground v.1.15,2013-03-18 12:25:00,
2013-03-18 05:30:00,41.8,37.0,30.14,West,275,11.0,20.0,83,0.00,,,0.00,0,Wunderground v.1.15,2013-03-18 12:30:00,
2013-03-18 05:35:00,41.8,36.7,30.13,SW,221,20.0,23.0,82,0.00,,,0.00,0,Wunderground v.1.15,2013-03-18 12:35:00,
2013-03-18 05:40:00,41.9,36.8,30.13,West,272,20.0,25.0,82,0.00,,,0.00,0,Wunderground v.1.15,2013-03-18 12:40:00,
2013-03-18 05:45:00,41.9,36.8,30.13,WNW,297,10.0,25.0,82,0.00,,,0.00,0,Wunderground v.1.15,2013-03-18 12:45:00,
2013-03-18 05:50:00,41.9,36.8,30.13,West,261,12.0,25.0,82,0.00,,,0.00,0,Wunderground v.1.15,2013-03-18 12:50:00,
2013-03-18 05:55:00,42.0,36.9,30.13,WSW,255,12.0,22.0,82,0.00,,,0.00,0,Wunderground v.1.15,2013-03-18 12:55:00,
2013-03-18 06:00:00,42.1,37.0,30.13,WNW,287,11.0,25.0,82,0.00,,,0.00,0,Wunderground v.1.15,2013-03-18 13:00:00,
2013-03-18 06:05:00,42.1,37.0,30.13,West,273,17.0,23.0,82,0.00,,,0.00,0,Wunderground v.1.15,2013-03-18 13:05:00,
2013-03-18 06:10:00,42.1,37.0,30.14,NW,323,9.0,23.0,82,0.00,,,0.00,0,Wunderground v.1.15,2013-03-18 13:10:00,
2013-03-18 06:15:00,42.1,37.0,30.14,SW,232,10.0,31.0,82,0.00,,,0.00,0,Wunderground v.1.15,2013-03-18 13:15:00,
2013-03-18 06:20:00,42.1,37.0,30.15,West,266,7.0,31.0,82,0.00,,,0.00,0,Wunderground v.1.15,2013-03-18 13:20:00,
2013-03-18 06:25:00,42.1,37.0,30.15,West,271,10.0,23.0,82,0.00,,,0.00,0,Wunderground v.1.15,2013-03-18 13:25:00,
2013-03-18 06:30:00,42.0,36.9,30.15,West,260,5.0,23.0,82,0.00,,,0.00,0,Wunderground v.1.15,2013-03-18 13:30:00,
2013-03-18 06:35:00,42.0,37.2,30.15,West,278,7.0,13.0,83,0.00,,,0.00,0,Wunderground v.1.15,2013-03-18 13:35:00,
2013-03-18 06:40:00,42.0,37.2,30.15,West,268,7.0,13.0,83,0.00,,,0.00,0,Wunderground v.1.15,2013-03-18 13:40:00,
2013-03-18 06:45:00,42.1,37.3,30.15,West,259,6.0,13.0,83,0.00,,,0.00,0,Wunderground v.1.15,2013-03-18 13:45:00,
2013-03-18 06:50:00,42.1,37.3,30.16,West,259,5.0,19.0,83,0.00,,,0.00,0,Wunderground v.1.15,2013-03-18 13:50:00,
2013-03-18 06:55:00,42.0,37.2,30.15,West,281,11.0,25.0,83,0.00,,,0.00,0,Wunderground v.1.15,2013-03-18 13:55:00,
2013-03-18 07:00:00,41.9,37.4,30.16,WSW,255,9.0,25.0,84,0.00,,,0.00,0,Wunderground v.1.15,2013-03-18 14:00:00,
2013-03-18 07:05:00,41.9,37.4,30.16,WNW,292,9.0,22.0,84,0.00,,,0.00,0,Wunderground v.1.15,2013-03-18 14:05:00,
2013-03-18 07:10:00,41.9,37.4,30.16,West,266,10.0,22.0,84,0.00,,,0.00,0,Wunderground v.1.15,2013-03-18 14:10:00,
2013-03-18 07:15:00,41.9,37.4,30.16,NW,304,7.0,14.0,84,0.00,,,0.00,0,Wunderground v.1.15,2013-03-18 14:15:00,
2013-03-18 07:20:00,42.0,37.5,30.16,WSW,244,10.0,15.0,84,0.00,,,0.00,0,Wunderground v.1.15,2013-03-18 14:20:00,
2013-03-18 07:25:00,42.0,37.5,30.16,WNW,282,6.0,12.0,84,0.00,,,0.00,0,Wunderground v.1.15,2013-03-18 14:25:00,
2013-03-18 07:30:00,42.0,37.8,30.16,NW,306,6.0,12.0,85,0.00,,,0.00,0,Wunderground v.1.15,2013-03-18 14:30:00,
2013-03-18 07:35:00,42.0,37.8,30.16,WNW,289,11.0,18.0,85,0.00,,,0.00,0,Wunderground v.1.15,2013-03-18 14:35:00,
2013-03-18 07:40:00,42.1,37.9,30.16,WNW,297,7.0,18.0,85,0.00,,,0.00,0,Wunderground v.1.15,2013-03-18 14:40:00,
2013-03-18 07:45:00,42.1,37.9,30.16,WNW,284,6.0,10.0,85,0.00,,,0.00,5,Wunderground v.1.15,2013-03-18 14:45:00,
2013-03-18 07:50:00,42.2,38.0,30.16,West,260,10.0,11.0,85,0.00,,,0.00,5,Wunderground v.1.15,2013-03-18 14:50:00,
2013-03-18 07:55:00,42.3,38.1,30.16,NNW,336,4.0,9.0,85,0.00,,,0.00,0,Wunderground v.1.15,2013-03-18 14:55:00,
2013-03-18 08:00:00,42.3,38.1,30.16,WSW,250,6.0,12.0,85,0.00,,,0.00,5,Wunderground v.1.15,2013-03-18 15:00:00,
2013-03-18 08:05:00,42.2,37.7,30.16,West,265,7.0,16.0,84,0.00,,,0.00,7,Wunderground v.1.15,2013-03-18 15:05:00,
2013-03-18 08:10:00,42.2,38.0,30.17,West,275,6.0,16.0,85,0.00,,,0.00,7,Wunderground v.1.15,2013-03-18 15:10:00,
2013-03-18 08:15:00,42.2,38.0,30.17,West,271,8.0,13.0,85,0.00,,,0.00,11,Wunderground v.1.15,2013-03-18 15:15:00,
2013-03-18 08:20:00,42.2,38.0,30.17,WSW,248,1.0,13.0,85,0.00,,,0.00,9,Wunderground v.1.15,2013-03-18 15:20:00,
2013-03-18 08:25:00,42.2,38.0,30.17,NW,311,11.0,11.0,85,0.00,,,0.00,11,Wunderground v.1.15,2013-03-18 15:25:00,
2013-03-18 08:30:00,42.3,38.1,30.17,West,260,6.0,12.0,85,0.00,,,0.00,12,Wunderground v.1.15,2013-03-18 15:30:00,
2013-03-18 08:35:00,42.3,37.8,30.17,NNW,330,10.0,11.0,84,0.00,,,0.00,12,Wunderground v.1.15,2013-03-18 15:35:00,
2013-03-18 08:40:00,42.2,38.0,30.17,NW,325,4.0,11.0,85,0.00,,,0.00,12,Wunderground v.1.15,2013-03-18 15:40:00,
2013-03-18 08:45:00,42.3,38.1,30.17,WNW,300,1.0,6.0,85,0.00,,,0.00,12,Wunderground v.1.15,2013-03-18 15:45:00,
2013-03-18 08:50:00,42.4,38.2,30.17,NW,320,3.0,8.0,85,0.00,,,0.00,12,Wunderground v.1.15,2013-03-18 15:50:00,
2013-03-18 08:55:00,42.4,38.2,30.17,NNW,331,6.0,9.0,85,0.00,,,0.00,14,Wunderground v.1.15,2013-03-18 15:55:00,
2013-03-18 09:00:00,42.4,38.2,30.17,WNW,302,3.0,9.0,85,0.00,,,0.00,18,Wunderground v.1.15,2013-03-18 16:00:00,
2013-03-18 09:05:00,42.4,38.2,30.18,WNW,284,2.0,7.0,85,0.00,,,0.00,14,Wunderground v.1.15,2013-03-18 16:05:00,
2013-03-18 09:10:00,42.5,38.3,30.18,WNW,296,4.0,7.0,85,0.00,,,0.00,25,Wunderground v.1.15,2013-03-18 16:10:00,
2013-03-18 09:15:00,42.5,38.3,30.18,WNW,301,1.0,6.0,85,0.00,,,0.00,25,Wunderground v.1.15,2013-03-18 16:15:00,
2013-03-18 09:20:00,42.6,38.4,30.18,NW,304,3.0,7.0,85,0.00,,,0.00,26,Wunderground v.1.15,2013-03-18 16:20:00,
2013-03-18 09:25:00,42.6,38.4,30.19,WNW,286,1.0,6.0,85,0.00,,,0.00,26,Wunderground v.1.15,2013-03-18 16:25:00,
2013-03-18 09:30:00,42.7,38.5,30.18,West,281,6.0,6.0,85,0.00,,,0.00,105,Wunderground v.1.15,2013-03-18 16:30:00,
2013-03-18 09:35:00,42.9,39.0,30.19,West,275,5.0,5.0,86,0.00,,,0.00,86,Wunderground v.1.15,2013-03-18 16:35:00,
2013-03-18 09:40:00,42.7,39.1,30.19,NW,313,4.0,5.0,87,0.00,,,0.00,67,Wunderground v.1.15,2013-03-18 16:40:00,
2013-03-18 09:45:00,42.6,39.3,30.19,NNW,338,4.0,5.0,88,0.00,,,0.00,111,Wunderground v.1.15,2013-03-18 16:45:00,
2013-03-18 09:50:00,42.7,39.7,30.19,WSW,254,2.0,5.0,89,0.00,,,0.00,123,Wunderground v.1.15,2013-03-18 16:50:00,
2013-03-18 09:55:00,42.7,39.7,30.19,West,270,7.0,8.0,89,0.00,,,0.00,113,Wunderground v.1.15,2013-03-18 16:55:00,
2013-03-18 10:00:00,42.7,40.0,30.19,West,271,5.0,8.0,90,0.00,,,0.00,105,Wunderground v.1.15,2013-03-18 17:00:00,
2013-03-18 10:05:00,42.5,39.8,30.19,West,268,5.0,7.0,90,0.00,,,0.00,91,Wunderground v.1.15,2013-03-18 17:05:00,
2013-03-18 10:10:00,42.3,39.6,30.19,WSW,246,4.0,8.0,90,0.00,,,0.00,91,Wunderground v.1.15,2013-03-18 17:10:00,
2013-03-18 10:14:00,42.5,39.8,30.18,SW,229,5.0,11.0,90,0.00,,,0.00,165,Wunderground v.1.15,2013-03-18 17:14:00,
2013-03-18 10:20:00,42.7,39.7,30.19,West,264,4.0,11.0,89,0.00,,,0.00,234,Wunderground v.1.15,2013-03-18 17:20:00,
2013-03-18 10:25:00,43.6,40.6,30.19,West,273,6.0,7.0,89,0.00,,,0.00,515,Wunderground v.1.15,2013-03-18 17:25:00,
2013-03-18 10:30:00,44.3,40.1,30.20,West,266,3.0,7.0,85,0.00,,,0.00,186,Wunderground v.1.15,2013-03-18 17:30:00,
2013-03-18 10:35:00,43.8,39.9,30.19,West,271,6.0,9.0,86,0.00,,,0.00,540,Wunderground v.1.15,2013-03-18 17:35:00,
2013-03-18 10:40:00,44.1,40.2,30.20,West,266,5.0,9.0,86,0.00,,,0.00,209,Wunderground v.1.15,2013-03-18 17:40:00,
2013-03-18 10:45:00,44.1,39.9,30.19,West,269,1.0,6.0,85,0.00,,,0.00,200,Wunderground v.1.15,2013-03-18 17:45:00,
2013-03-18 10:49:00,44.6,40.4,30.19,West,260,4.0,6.0,85,0.00,,,0.00,162,Wunderground v.1.15,2013-03-18 17:49:00,
2013-03-18 10:54:00,44.5,40.0,30.20,West,279,2.0,5.0,84,0.00,,,0.00,327,Wunderground v.1.15,2013-03-18 17:54:00,
2013-03-18 10:59:00,45.1,39.9,30.20,West,276,3.0,5.0,82,0.00,,,0.00,279,Wunderground v.1.15,2013-03-18 17:59:00,
2013-03-18 11:04:00,45.2,40.3,30.20,WSW,251,1.0,4.0,83,0.00,,,0.00,294,Wunderground v.1.15,2013-03-18 18:04:00,
2013-03-18 11:09:00,45.9,40.4,30.20,WSW,253,2.0,4.0,81,0.00,,,0.00,250,Wunderground v.1.15,2013-03-18 18:09:00,
2013-03-18 11:14:00,45.7,39.9,30.20,West,267,2.0,4.0,80,0.00,,,0.00,306,Wunderground v.1.15,2013-03-18 18:14:00,
2013-03-18 11:19:00,45.7,39.6,30.21,West,268,1.0,4.0,79,0.00,,,0.00,299,Wunderground v.1.15,2013-03-18 18:19:00,
2013-03-18 11:24:00,46.0,38.9,30.21,West,267,5.0,7.0,76,0.00,,,0.00,770,Wunderground v.1.15,2013-03-18 18:24:00,
2013-03-18 11:29:00,46.5,39.3,30.21,WSW,247,3.0,7.0,76,0.00,,,0.00,272,Wunderground v.1.15,2013-03-18 18:29:00,
2013-03-18 11:34:00,47.0,39.1,30.21,West,269,9.0,9.0,74,0.00,,,0.00,650,Wunderground v.1.15,2013-03-18 18:34:00,
2013-03-18 11:39:00,46.7,39.2,30.21,West,267,5.0,9.0,75,0.00,,,0.00,598,Wunderground v.1.15,2013-03-18 18:39:00,
2013-03-18 11:44:00,47.0,38.8,30.20,West,265,6.0,8.0,73,0.00,,,0.00,587,Wunderground v.1.15,2013-03-18 18:44:00,
2013-03-18 11:49:00,47.2,39.0,30.20,West,261,5.0,8.0,73,0.00,,,0.00,599,Wunderground v.1.15,2013-03-18 18:49:00,
2013-03-18 11:54:00,47.9,40.4,30.21,South,174,5.0,7.0,75,0.00,,,0.00,612,Wunderground v.1.15,2013-03-18 18:54:00,
2013-03-18 11:59:00,48.3,39.7,30.21,SW,231,2.0,7.0,72,0.00,,,0.00,127,Wunderground v.1.15,2013-03-18 18:59:00,
2013-03-18 12:04:00,47.9,39.3,30.21,SW,218,4.0,6.0,72,0.00,,,0.00,88,Wunderground v.1.15,2013-03-18 19:04:00,
2013-03-18 12:09:00,47.1,38.9,30.21,SW,232,2.0,6.0,73,0.00,,,0.00,102,Wunderground v.1.15,2013-03-18 19:09:00,
2013-03-18 12:14:00,46.9,39.0,30.21,WSW,242,2.0,4.0,74,0.00,,,0.00,116,Wunderground v.1.15,2013-03-18 19:14:00,
2013-03-18 12:19:00,46.8,38.6,30.21,WSW,242,2.0,4.0,73,0.00,,,0.00,77,Wunderground v.1.15,2013-03-18 19:19:00,
2013-03-18 12:24:00,46.8,39.3,30.21,WSW,242,0.0,3.0,75,0.00,,,0.00,95,Wunderground v.1.15,2013-03-18 19:24:00,
2013-03-18 12:29:00,46.5,39.0,30.21,WSW,242,1.0,3.0,75,0.00,,,0.00,169,Wunderground v.1.15,2013-03-18 19:29:00,
2013-03-18 12:34:00,47.3,39.8,30.21,WSW,242,3.0,3.0,75,0.00,,,0.00,701,Wunderground v.1.15,2013-03-18 19:34:00,
2013-03-18 12:39:00,48.3,40.4,30.21,WSW,245,0.0,3.0,74,0.00,,,0.00,679,Wunderground v.1.15,2013-03-18 19:39:00,
2013-03-18 12:44:00,50.9,41.5,30.21,SSW,204,3.0,5.0,70,0.00,,,0.00,668,Wunderground v.1.15,2013-03-18 19:44:00,
2013-03-18 12:49:00,49.5,39.0,30.21,SSW,204,1.0,5.0,67,0.00,,,0.00,114,Wunderground v.1.15,2013-03-18 19:49:00,
2013-03-18 12:54:00,49.1,39.4,30.21,SSW,204,1.0,3.0,69,0.00,,,0.00,559,Wunderground v.1.15,2013-03-18 19:54:00,
2013-03-18 12:59:00,48.5,39.2,30.21,WSW,248,1.0,3.0,70,0.00,,,0.00,79,Wunderground v.1.15,2013-03-18 19:59:00,
2013-03-18 13:04:00,48.1,39.1,30.21,WSW,248,0.0,2.0,71,0.00,,,0.00,652,Wunderground v.1.15,2013-03-18 20:04:00,
2013-03-18 13:09:00,48.3,39.3,30.21,WSW,249,2.0,4.0,71,0.00,,,0.00,664,Wunderground v.1.15,2013-03-18 20:09:00,
2013-03-18 13:14:00,48.8,39.4,30.21,WSW,249,1.0,3.0,70,0.00,,,0.00,105,Wunderground v.1.15,2013-03-18 20:14:00,
2013-03-18 13:19:00,48.9,39.9,30.21,WSW,249,2.0,3.0,71,0.00,,,0.00,650,Wunderground v.1.15,2013-03-18 20:19:00,
2013-03-18 13:24:00,51.6,40.2,30.21,WSW,249,0.0,3.0,65,0.00,,,0.00,675,Wunderground v.1.15,2013-03-18 20:24:00,
2013-03-18 13:29:00,51.0,39.2,30.21,SW,219,2.0,5.0,64,0.00,,,0.00,163,Wunderground v.1.15,2013-03-18 20:29:00,
2013-03-18 13:34:00,49.5,39.0,30.21,South,171,4.0,6.0,67,0.00,,,0.00,195,Wunderground v.1.15,2013-03-18 20:34:00,
2013-03-18 13:39:00,50.4,39.1,30.21,SSW,192,2.0,6.0,65,0.00,,,0.00,740,Wunderground v.1.15,2013-03-18 20:39:00,
2013-03-18 13:44:00,50.7,39.0,30.21,SW,236,6.0,6.0,64,0.00,,,0.00,153,Wunderground v.1.15,2013-03-18 20:44:00,
2013-03-18 13:49:00,49.9,38.2,30.21,SW,227,1.0,6.0,64,0.00,,,0.00,121,Wunderground v.1.15,2013-03-18 20:49:00,
2013-03-18 13:54:00,50.3,38.6,30.21,WSW,253,3.0,4.0,64,0.00,,,0.00,97,Wunderground v.1.15,2013-03-18 20:54:00,
2013-03-18 13:59:00,49.7,38.4,30.22,WSW,253,1.0,4.0,65,0.00,,,0.00,151,Wunderground v.1.15,2013-03-18 20:59:00,
2013-03-18 14:04:00,49.3,38.4,30.22,West,265,6.0,9.0,66,0.00,,,0.00,318,Wunderground v.1.15,2013-03-18 21:04:00,
2013-03-18 14:09:00,49.6,38.3,30.22,WSW,244,3.0,9.0,65,0.00,,,0.00,336,Wunderground v.1.15,2013-03-18 21:09:00,
2013-03-18 14:14:00,50.9,38.3,30.21,WNW,284,4.0,7.0,62,0.00,,,0.00,744,Wunderground v.1.15,2013-03-18 21:14:00,
2013-03-18 14:19:00,50.8,38.2,30.21,West,261,8.0,9.0,62,0.00,,,0.00,737,Wunderground v.1.15,2013-03-18 21:19:00,
2013-03-18 14:24:00,51.4,38.0,30.21,West,272,9.0,11.0,60,0.00,,,0.00,670,Wunderground v.1.15,2013-03-18 21:24:00,
2013-03-18 14:29:00,51.7,37.8,30.21,West,261,9.0,11.0,59,0.00,,,0.00,686,Wunderground v.1.15,2013-03-18 21:29:00,
2013-03-18 14:34:00,52.4,37.6,30.21,WSW,256,6.0,11.0,57,0.00,,,0.00,640,Wunderground v.1.15,2013-03-18 21:34:00,
2013-03-18 14:39:00,52.7,37.0,30.21,WSW,240,4.0,11.0,55,0.00,,,0.00,624,Wunderground v.1.15,2013-03-18 21:39:00,
2013-03-18 14:44:00,52.6,36.9,30.21,West,269,4.0,7.0,55,0.00,,,0.00,626,Wunderground v.1.15,2013-03-18 21:44:00,
2013-03-18 14:49:00,54.1,36.9,30.21,West,281,4.0,7.0,52,0.00,,,0.00,626,Wunderground v.1.15,2013-03-18 21:49:00,
2013-03-18 14:54:00,53.0,35.8,30.21,West,262,5.0,8.0,52,0.00,,,0.00,626,Wunderground v.1.15,2013-03-18 21:54:00,
2013-03-18 14:59:00,52.8,36.1,30.21,WNW,284,6.0,9.0,53,0.00,,,0.00,230,Wunderground v.1.15,2013-03-18 21:59:00,
2013-03-18 15:04:00,52.6,35.5,30.21,West,273,7.0,8.0,52,0.00,,,0.00,429,Wunderground v.1.15,2013-03-18 22:04:00,
2013-03-18 15:09:00,52.3,35.7,30.21,West,259,5.0,8.0,53,0.00,,,0.00,267,Wunderground v.1.15,2013-03-18 22:09:00,
2013-03-18 15:14:00,52.7,35.6,30.21,West,274,4.0,10.0,52,0.00,,,0.00,241,Wunderground v.1.15,2013-03-18 22:14:00,
2013-03-18 15:19:00,52.6,34.5,30.21,WSW,257,5.0,10.0,50,0.00,,,0.00,385,Wunderground v.1.15,2013-03-18 22:19:00,
2013-03-18 15:24:00,53.1,35.9,30.21,West,275,11.0,11.0,52,0.00,,,0.00,650,Wunderground v.1.15,2013-03-18 22:24:00,
2013-03-18 15:29:00,53.0,34.8,30.21,West,267,6.0,11.0,50,0.00,,,0.00,601,Wunderground v.1.15,2013-03-18 22:29:00,
2013-03-18 15:34:00,53.6,34.9,30.21,WNW,291,4.0,7.0,49,0.00,,,0.00,592,Wunderground v.1.15,2013-03-18 22:34:00,
2013-03-18 15:39:00,53.6,35.4,30.21,West,264,5.0,10.0,50,0.00,,,0.00,603,Wunderground v.1.15,2013-03-18 22:39:00,
2013-03-18 15:44:00,52.9,34.2,30.21,West,262,7.0,13.0,49,0.00,,,0.00,206,Wunderground v.1.15,2013-03-18 22:44:00,
2013-03-18 15:49:00,52.1,34.0,30.21,West,261,12.0,15.0,50,0.00,,,0.00,188,Wunderground v.1.15,2013-03-18 22:49:00,
2013-03-18 15:54:00,51.8,34.2,30.21,West,279,6.0,10.0,51,0.00,,,0.00,155,Wunderground v.1.15,2013-03-18 22:54:00,
2013-03-18 15:59:00,51.7,33.6,30.21,WSW,250,3.0,10.0,50,0.00,,,0.00,146,Wunderground v.1.15,2013-03-18 22:59:00,
2013-03-18 16:04:00,51.6,34.5,30.21,WSW,258,5.0,9.0,52,0.00,,,0.00,329,Wunderground v.1.15,2013-03-18 23:04:00,
2013-03-18 16:09:00,51.8,33.2,30.21,West,261,6.0,9.0,49,0.00,,,0.00,227,Wunderground v.1.15,2013-03-18 23:09:00,
2013-03-18 16:14:00,51.6,33.0,30.21,WSW,255,6.0,8.0,49,0.00,,,0.00,232,Wunderground v.1.15,2013-03-18 23:14:00,
2013-03-18 16:19:00,51.6,33.6,30.21,West,276,3.0,9.0,50,0.00,,,0.00,214,Wunderground v.1.15,2013-03-18 23:19:00,
2013-03-18 16:24:00,52.1,32.5,30.22,WSW,244,4.0,6.0,47,0.00,,,0.00,183,Wunderground v.1.15,2013-03-18 23:24:00,
2013-03-18 16:29:00,52.1,33.0,30.22,West,268,5.0,6.0,48,0.00,,,0.00,171,Wunderground v.1.15,2013-03-18 23:29:00,
2013-03-18 16:34:00,51.9,32.3,30.22,WSW,238,5.0,6.0,47,0.00,,,0.00,158,Wunderground v.1.15,2013-03-18 23:34:00,
2013-03-18 16:39:00,52.0,32.9,30.23,SW,225,4.0,7.0,48,0.00,,,0.00,172,Wunderground v.1.15,2013-03-18 23:39:00,
2013-03-18 16:44:00,51.2,36.9,30.23,SSW,211,2.0,5.0,58,0.00,,,0.00,220,Wunderground v.1.15,2013-03-18 23:44:00,
2013-03-18 16:49:00,50.6,36.4,30.23,ESE,122,2.0,7.0,58,0.00,,,0.00,394,Wunderground v.1.15,2013-03-18 23:49:00,
2013-03-18 16:54:00,51.0,36.7,30.23,WSW,239,2.0,6.0,58,0.00,,,0.00,151,Wunderground v.1.15,2013-03-18 23:54:00,
2013-03-18 16:59:00,51.1,36.4,30.23,South,186,5.0,7.0,57,0.00,,,0.00,162,Wunderground v.1.15,2013-03-18 23:59:00,
2013-03-18 17:04:00,50.6,36.4,30.23,SSE,153,3.0,7.0,58,0.00,,,0.00,135,Wunderground v.1.15,2013-03-19 00:04:00,
2013-03-18 17:09:00,50.5,35.4,30.23,ESE,109,7.0,12.0,56,0.00,,,0.00,135,Wunderground v.1.15,2013-03-19 00:09:00,
2013-03-18 17:14:00,50.0,35.4,30.23,ESE,123,8.0,11.0,57,0.00,,,0.00,176,Wunderground v.1.15,2013-03-19 00:14:00,
2013-03-18 17:19:00,50.0,35.4,30.23,ESE,117,3.0,11.0,57,0.00,,,0.00,141,Wunderground v.1.15,2013-03-19 00:19:00,
2013-03-18 17:24:00,50.0,35.4,30.23,ESE,113,2.0,8.0,57,0.00,,,0.00,128,Wunderground v.1.15,2013-03-19 00:24:00,
2013-03-18 17:29:00,50.4,35.3,30.23,ESE,117,3.0,8.0,56,0.00,,,0.00,116,Wunderground v.1.15,2013-03-19 00:29:00,
2013-03-18 17:34:00,50.3,35.2,30.23,SSE,154,4.0,5.0,56,0.00,,,0.00,107,Wunderground v.1.15,2013-03-19 00:34:00,
2013-03-18 17:39:00,50.3,35.2,30.23,SSE,166,0.0,5.0,56,0.00,,,0.00,144,Wunderground v.1.15,2013-03-19 00:39:00,
2013-03-18 17:44:00,50.3,34.7,30.23,SSE,155,3.0,7.0,55,0.00,,,0.00,104,Wunderground v.1.15,2013-03-19 00:44:00,
2013-03-18 17:49:00,50.0,34.9,30.23,SSW,195,2.0,7.0,56,0.00,,,0.00,123,Wunderground v.1.15,2013-03-19 00:49:00,
2013-03-18 17:54:00,50.0,34.5,30.22,SSE,156,3.0,7.0,55,0.00,,,0.00,81,Wunderground v.1.15,2013-03-19 00:54:00,
2013-03-18 17:59:00,49.8,34.7,30.23,SE,138,1.0,7.0,56,0.00,,,0.00,72,Wunderground v.1.15,2013-03-19 00:59:00,
2013-03-18 18:04:00,49.6,35.0,30.23,SSE,155,1.0,5.0,57,0.00,,,0.00,51,Wunderground v.1.15,2013-03-19 01:04:00,
2013-03-18 18:09:00,49.1,34.9,30.23,ESE,109,2.0,10.0,58,0.00,,,0.00,58,Wunderground v.1.15,2013-03-19 01:09:00,
2013-03-18 18:14:00,48.8,34.7,30.23,SE,128,3.0,10.0,58,0.00,,,0.00,70,Wunderground v.1.15,2013-03-19 01:14:00,
2013-03-18 18:19:00,48.7,35.0,30.23,ESE,107,1.0,10.0,59,0.00,,,0.00,63,Wunderground v.1.15,2013-03-19 01:19:00,
2013-03-18 18:24:00,48.6,34.9,30.23,East,98,5.0,8.0,59,0.00,,,0.00,54,Wunderground v.1.15,2013-03-19 01:24:00,
2013-03-18 18:29:00,48.5,34.8,30.23,ESE,110,7.0,8.0,59,0.00,,,0.00,49,Wunderground v.1.15,2013-03-19 01:29:00,
2013-03-18 18:34:00,48.5,34.8,30.23,ESE,102,4.0,8.0,59,0.00,,,0.00,51,Wunderground v.1.15,2013-03-19 01:34:00,
2013-03-18 18:39:00,48.6,35.3,30.23,ESE,118,7.0,8.0,60,0.00,,,0.00,42,Wunderground v.1.15,2013-03-19 01:39:00,
2013-03-18 18:44:00,48.4,34.7,30.23,East,89,3.0,8.0,59,0.00,,,0.00,35,Wunderground v.1.15,2013-03-19 01:44:00,
2013-03-18 18:49:00,48.4,34.7,30.23,ESE,114,3.0,8.0,59,0.00,,,0.00,33,Wunderground v.1.15,2013-03-19 01:49:00,
2013-03-18 18:54:00,48.2,35.0,30.23,ESE,108,3.0,5.0,60,0.00,,,0.00,23,Wunderground v.1.15,2013-03-19 01:54:00,
2013-03-18 18:59:00,48.0,34.8,30.24,ESE,107,4.0,8.0,60,0.00,,,0.00,16,Wunderground v.1.15,2013-03-19 01:59:00,
2013-03-18 19:04:00,47.9,34.7,30.24,East,98,2.0,7.0,60,0.00,,,0.00,14,Wunderground v.1.15,2013-03-19 02:04:00,
2013-03-18 19:09:00,47.9,34.7,30.24,ESE,111,4.0,7.0,60,0.00,,,0.00,7,Wunderground v.1.15,2013-03-19 02:09:00,
2013-03-18 19:14:00,47.8,34.6,30.24,ESE,111,4.0,5.0,60,0.00,,,0.00,5,Wunderground v.1.15,2013-03-19 02:14:00,
2013-03-18 19:19:00,47.8,34.6,30.24,ESE,106,2.0,7.0,60,0.00,,,0.00,0,Wunderground v.1.15,2013-03-19 02:19:00,
2013-03-18 19:24:00,47.6,34.4,30.24,East,95,3.0,5.0,60,0.00,,,0.00,0,Wunderground v.1.15,2013-03-19 02:24:00,
2013-03-18 19:29:00,47.4,34.2,30.24,ESE,116,3.0,9.0,60,0.00,,,0.00,0,Wunderground v.1.15,2013-03-19 02:29:00,
2013-03-18 19:34:00,47.2,34.4,30.24,East,96,3.0,7.0,61,0.00,,,0.00,0,Wunderground v.1.15,2013-03-19 02:34:00,
2013-03-18 19:39:00,47.0,33.8,30.24,ESE,113,3.0,8.0,60,0.00,,,0.00,0,Wunderground v.1.15,2013-03-19 02:39:00,
2013-03-18 19:44:00,46.9,34.1,30.24,ESE,111,2.0,4.0,61,0.00,,,0.00,0,Wunderground v.1.15,2013-03-19 02:44:00,
2013-03-18 19:49:00,46.8,34.0,30.24,ESE,104,2.0,4.0,61,0.00,,,0.00,0,Wunderground v.1.15,2013-03-19 02:49:00,
2013-03-18 19:54:00,46.7,34.4,30.24,ESE,105,0.0,4.0,62,0.00,,,0.00,0,Wunderground v.1.15,2013-03-19 02:54:00,
2013-03-18 19:59:00,46.5,34.2,30.24,ESE,105,3.0,4.0,62,0.00,,,0.00,0,Wunderground v.1.15,2013-03-19 02:59:00,
2013-03-18 20:04:00,46.3,34.4,30.24,ESE,106,2.0,3.0,63,0.00,,,0.00,0,Wunderground v.1.15,2013-03-19 03:04:00,
2013-03-18 20:09:00,46.2,34.3,30.25,ESE,107,1.0,3.0,63,0.00,,,0.00,0,Wunderground v.1.15,2013-03-19 03:09:00,
2013-03-18 20:14:00,46.1,34.2,30.25,ESE,110,0.0,4.0,63,0.00,,,0.00,0,Wunderground v.1.15,2013-03-19 03:14:00,
2013-03-18 20:19:00,45.8,34.3,30.25,ESE,105,3.0,10.0,64,0.00,,,0.00,0,Wunderground v.1.15,2013-03-19 03:19:00,
2013-03-18 20:24:00,45.7,34.6,30.25,ESE,107,2.0,4.0,65,0.00,,,0.00,0,Wunderground v.1.15,2013-03-19 03:24:00,
2013-03-18 20:29:00,45.6,34.5,30.25,ESE,105,7.0,9.0,65,0.00,,,0.00,0,Wunderground v.1.15,2013-03-19 03:29:00,
2013-03-18 20:34:00,45.5,34.4,30.25,ESE,105,5.0,7.0,65,0.00,,,0.00,0,Wunderground v.1.15,2013-03-19 03:34:00,
2013-03-18 20:39:00,45.3,34.2,30.25,ESE,102,2.0,7.0,65,0.00,,,0.00,0,Wunderground v.1.15,2013-03-19 03:39:00,
2013-03-18 20:44:00,45.0,34.3,30.25,ESE,113,3.0,7.0,66,0.00,,,0.00,0,Wunderground v.1.15,2013-03-19 03:44:00,
2013-03-18 20:49:00,44.9,34.2,30.25,ESE,119,4.0,7.0,66,0.00,,,0.00,0,Wunderground v.1.15,2013-03-19 03:49:00,
2013-03-18 20:54:00,44.7,34.0,30.25,ESE,119,1.0,5.0,66,0.00,,,0.00,0,Wunderground v.1.15,2013-03-19 03:54:00,
2013-03-18 20:59:00,44.6,33.9,30.25,SE,136,2.0,5.0,66,0.00,,,0.00,0,Wunderground v.1.15,2013-03-19 03:59:00,
2013-03-18 21:00:00,44.6,34.3,30.25,SE,136,1.0,5.0,67,0.00,,,0.00,0,Wunderground v.1.15,2013-03-19 04:00:00,
2013-03-18 21:05:00,44.5,34.2,30.25,ESE,106,3.0,5.0,67,0.00,,,0.00,0,Wunderground v.1.15,2013-03-19 04:05:00,
2013-03-18 21:10:00,44.3,34.0,30.25,ESE,109,1.0,2.0,67,0.00,,,0.00,0,Wunderground v.1.15,2013-03-19 04:10:00,
2013-03-18 21:15:00,44.1,34.2,30.25,ESE,102,1.0,6.0,68,0.00,,,0.00,0,Wunderground v.1.15,2013-03-19 04:15:00,
2013-03-18 21:20:00,43.9,34.0,30.25,East,92,2.0,2.0,68,0.00,,,0.00,0,Wunderground v.1.15,2013-03-19 04:20:00,
2013-03-18 21:25:00,43.8,34.3,30.25,East,92,0.0,2.0,69,0.00,,,0.00,0,Wunderground v.1.15,2013-03-19 04:25:00,
2013-03-18 21:30:00,43.8,34.3,30.26,East,99,1.0,2.0,69,0.00,,,0.00,0,Wunderground v.1.15,2013-03-19 04:30:00,
2013-03-18 21:36:00,43.6,34.5,30.26,East,99,0.0,3.0,70,0.00,,,0.00,0,Wunderground v.1.15,2013-03-19 04:36:00,
2013-03-18 21:41:00,43.5,34.4,30.26,East,99,3.0,3.0,70,0.00,,,0.00,0,Wunderground v.1.15,2013-03-19 04:41:00,
2013-03-18 21:47:00,43.3,34.5,30.26,East,96,1.0,3.0,71,0.00,,,0.00,0,Wunderground v.1.15,2013-03-19 04:47:00,
2013-03-18 21:51:00,43.3,34.5,30.26,East,96,0.0,2.0,71,0.00,,,0.00,0,Wunderground v.1.15,2013-03-19 04:51:00,
2013-03-18 21:56:00,43.1,34.7,30.26,East,96,1.0,3.0,72,0.00,,,0.00,0,Wunderground v.1.15,2013-03-19 04:56:00,
2013-03-18 22:02:00,42.9,34.5,30.26,East,96,0.0,2.0,72,0.00,,,0.00,0,Wunderground v.1.15,2013-03-19 05:02:00,
2013-03-18 22:07:00,42.6,34.2,30.26,East,96,0.0,2.0,72,0.00,,,0.00,0,Wunderground v.1.15,2013-03-19 05:07:00,
2013-03-18 22:12:00,42.5,34.5,30.26,East,96,0.0,0.0,73,0.00,,,0.00,0,Wunderground v.1.15,2013-03-19 05:12:00,
2013-03-18 22:17:00,42.3,34.6,30.26,East,96,0.0,2.0,74,0.00,,,0.00,0,Wunderground v.1.15,2013-03-19 05:17:00,
2013-03-18 22:22:00,42.4,34.7,30.26,East,96,0.0,1.0,74,0.00,,,0.00,0,Wunderground v.1.15,2013-03-19 05:22:00,
2013-03-18 22:27:00,42.2,34.5,30.26,East,96,0.0,1.0,74,0.00,,,0.00,0,Wunderground v.1.15,2013-03-19 05:27:00,
2013-03-18 22:32:00,42.1,34.7,30.26,East,96,0.0,3.0,75,0.00,,,0.00,0,Wunderground v.1.15,2013-03-19 05:32:00,
2013-03-18 22:37:00,42.2,34.8,30.26,East,92,1.0,3.0,75,0.00,,,0.00,0,Wunderground v.1.15,2013-03-19 05:37:00,
2013-03-18 22:42:00,42.1,34.7,30.26,East,92,0.0,1.0,75,0.00,,,0.00,0,Wunderground v.1.15,2013-03-19 05:42:00,
2013-03-18 22:47:00,41.9,34.9,30.26,East,92,1.0,2.0,76,0.00,,,0.00,0,Wunderground v.1.15,2013-03-19 05:47:00,
2013-03-18 22:51:00,41.9,34.9,30.26,East,92,1.0,2.0,76,0.00,,,0.00,0,Wunderground v.1.15,2013-03-19 05:51:00,
2013-03-18 22:56:00,42.0,35.0,30.26,East,93,0.0,3.0,76,0.00,,,0.00,0,Wunderground v.1.15,2013-03-19 05:56:00,
2013-03-18 23:02:00,42.0,35.0,30.26,East,97,0.0,2.0,76,0.00,,,0.00,0,Wunderground v.1.15,2013-03-19 06:02:00,
2013-03-18 23:07:00,41.9,34.9,30.26,East,97,1.0,2.0,76,0.00,,,0.00,0,Wunderground v.1.15,2013-03-19 06:07:00,
2013-03-18 23:12:00,41.8,34.8,30.26,East,97,3.0,3.0,76,0.00,,,0.00,0,Wunderground v.1.15,2013-03-19 06:12:00,
2013-03-18 23:17:00,41.9,34.9,30.26,East,98,0.0,3.0,76,0.00,,,0.00,0,Wunderground v.1.15,2013-03-19 06:17:00,
2013-03-18 23:22:00,41.8,34.8,30.26,East,98,0.0,2.0,76,0.00,,,0.00,0,Wunderground v.1.15,2013-03-19 06:22:00,
2013-03-18 23:27:00,41.7,35.0,30.26,East,97,0.0,2.0,77,0.00,,,0.00,0,Wunderground v.1.15,2013-03-19 06:27:00,
2013-03-18 23:32:00,41.6,34.9,30.26,East,97,0.0,1.0,77,0.00,,,0.00,0,Wunderground v.1.15,2013-03-19 06:32:00,
2013-03-18 23:37:00,41.5,34.8,30.26,East,97,1.0,2.0,77,0.00,,,0.00,0,Wunderground v.1.15,2013-03-19 06:37:00,
2013-03-18 23:42:00,41.4,34.7,30.26,East,97,1.0,2.0,77,0.00,,,0.00,0,Wunderground v.1.15,2013-03-19 06:42:00,
2013-03-18 23:47:00,41.5,34.8,30.26,East,98,2.0,3.0,77,0.00,,,0.00,0,Wunderground v.1.15,2013-03-19 06:47:00,
2013-03-18 23:52:00,41.5,34.8,30.26,East,98,1.0,2.0,77,0.00,,,0.00,0,Wunderground v.1.15,2013-03-19 06:52:00,
2013-03-18 23:57:00,41.5,35.2,30.26,East,99,3.0,3.0,78,0.00,,,0.00,0,Wunderground v.1.15,2013-03-19 06:57:00,